Regional Weather Roundup
Issued by NWS

Home | Current Version | Previous Version | Text Only | Print | Product List | Glossary Off
Versions: 1 2 3 4 5 6 7 8 9 10 11 12 13 14 15 16 17 18 19 20 21 22 23 24 25 26 27 28 29 30 31 32 33 34 35 36 37 38 39 40 41 42 43 44 45 46 47 48 49 50

000
ASUS45 KSLC 042310
RWRUT
UTAH REGIONAL WEATHER ROUNDUP
NATIONAL WEATHER SERVICE SALT LAKE CITY UT
500 PM MDT TUE AUG 04 2015

UTZ001>011-023>025-050000-

NORTHERN UTAH

CITY           SKY/WX    TMP DP  RH WIND       PRES   REMARKS
BRIGHAM CITY   SUNNY     86  40  19 S6        30.03F
HILL AFB       NOT AVBL
LOGAN          SUNNY     85  49  28 S5        30.03F
OGDEN          SUNNY     88  47  24 VRB5      30.03F
PROVO AIRPORT  MOSUNNY   88  48  25 VRB5      30.04F
SALT LAKE CITY MOSUNNY   90  46  21 VRB3      30.00F
VERNAL         PTSUNNY   85  42  22 VRB5      30.11F
WENDOVER       MOSUNNY   88  46  23 SE8       30.00F
HEBER CITY     MOSUNNY   88  34  14 NW5       30.12S
WEST JORDAN    SUNNY     88  48  25 E5        30.05F

$$

UTZ012>022-026-027-050000-

SOUTHERN/CENTRAL UTAH

CITY           SKY/WX    TMP DP  RH WIND       PRES   REMARKS
BLANDING       MOSUNNY   85  43  22 NE12G22   30.25S
CEDAR CITY     MOSUNNY   90  25   9 SW17G25   30.11F
DELTA          SUNNY     91  33  12 SW8       30.04F
HANKSVILLE     SUNNY     95  41  15 SE10G16   30.04F HX  91
MILFORD        MOSUNNY   93  32  11 SW20G29   30.04F
MOAB/CYNLANDS  SUNNY     92  43  18 VRB7      30.04F
PRICE          MOSUNNY   86  41  20 VRB5      30.15F
ST GEORGE      PTCLDY   100  37  11 W14       29.92S HX  95
KANAB          SUNNY     93  32  11 SW10G17   30.13F

$$

REGIONAL REPORTS     COLORADO/ARIZONA

CITY           SKY/WX    TMP DP  RH WIND       PRES   REMARKS
CRAIG, CO      NOT AVBL
GRAND JUNCTION MOSUNNY   91  40  16 VRB6      30.07F
RIFLE          MOSUNNY   87  40  19 W9        30.12F
MONTROSE       MOSUNNY   88  43  20 VRB5      30.17F
CORTEZ         SUNNY     88  39  17 SW12G21   30.19F
PAGE, AZ       SUNNY     97  36  12 N6        30.01F HX  92
GRAND CANYON   SUNNY     87  27  11 SW10G21   30.25F
KINGMAN        SUNNY    100  25   7 SW21G29   30.00F HX  93
FLAGSTAFF      SUNNY     83  36  18 S15G23    30.29F

$$

REGIONAL REPORTS    NEVADA/IDAHO/WYOMING

CITY           SKY/WX    TMP DP  RH WIND       PRES   REMARKS
LAS VEGAS, NV  MOSUNNY  105  26   6 SW16G23   29.81F HX  97
ELY            PTSUNNY   88  20   8 S12G18    30.11F
ELKO           PTSUNNY   91  27  10 NW6       29.98F
POCATELLO, ID  PTSUNNY   90  40  17 VRB5G18   30.00F
BURLEY         PTSUNNY   82  52  35 CALM      29.97R
EVANSTON, WY   MOSUNNY   80  39  23 W15       30.24F
ROCK SPRINGS   SUNNY     79  32  18 W23G37    30.21S
KEMMERER       SUNNY     77  36  22 W14       30.25F

$$


USA.gov is the U.S. government's official web portal to all federal, state and local government web resources and services.